| time (UTC) | temp C | wind direction | speed KPH | gust KPH | rain 1hr cm | rain 24hr cm | rain mn cm | humidity % | barometer mb |
| 20260905014503 | 5 | 0 | 0.0 | 0.0 | 0.00 | 0.00 | 0.00 | 95 | 991.8 |
| 20260905013603 | 4 | 0 | 0.0 | 0.0 | 0.00 | 0.00 | 0.00 | 95 | 991.8 |
| 20260905012703 | 4 | 0 | 0.0 | 0.0 | 0.00 | 0.00 | 0.00 | 95 | 991.7 |
| 20260905011803 | 5 | 0 | 0.0 | 0.0 | 0.00 | 0.00 | 0.00 | 95 | 991.8 |
| 20260905010903 | 5 | 0 | 0.0 | 0.0 | 0.00 | 0.00 | 0.00 | 95 | 991.8 |
| 20260905010003 | 5 | 321 | 0.0 | 1.6 | 0.00 | 0.03 | 0.00 | 95 | 991.8 |
| 20260905005403 | 5 | 321 | 1.6 | 4.8 | 0.00 | 0.03 | 0.00 | 95 | 991.8 |
| 20260905004503 | 5 | 321 | 3.2 | 6.4 | 0.00 | 0.03 | 0.00 | 95 | 991.8 |
| 20260905003603 | 5 | 321 | 1.6 | 4.8 | 0.00 | 0.03 | 0.00 | 95 | 991.8 |
| 20260905002703 | 5 | 321 | 1.6 | 4.8 | 0.00 | 0.03 | 0.00 | 95 | 991.9 |
| 20260905001824 | 5 | 321 | 1.6 | 4.8 | 0.00 | 0.03 | 0.00 | 95 | 992.0 |
| 20260905000924 | 5 | 321 | 0.0 | 3.2 | 0.00 | 0.05 | 0.00 | 95 | 992.0 |
| 20260905000003 | 5 | 0 | 0.0 | 0.0 | 0.00 | 0.08 | 0.00 | 95 | 992.1 |
| 20260904235403 | 5 | 321 | 0.0 | 1.6 | 0.00 | 0.08 | 0.00 | 95 | 992.2 |
| 20260904234503 | 6 | 0 | 0.0 | 0.0 | 0.00 | 0.10 | 0.00 | 95 | 992.2 |
| 20260904233603 | 6 | 321 | 1.6 | 4.8 | 0.00 | 0.10 | 0.00 | 95 | 992.3 |
| 20260904232703 | 6 | 321 | 4.8 | 6.4 | 0.00 | 0.13 | 0.00 | 96 | 992.3 |
| 20260904231803 | 6 | 321 | 4.8 | 6.4 | 0.00 | 0.13 | 0.00 | 96 | 992.3 |
| 20260904230903 | 6 | 321 | 4.8 | 6.4 | 0.00 | 0.13 | 0.00 | 96 | 992.4 |
| 20260904230003 | 5 | 321 | 3.2 | 6.4 | 0.00 | 0.13 | 0.00 | 95 | 992.4 |
| 20260904225424 | 5 | 321 | 1.6 | 4.8 | 0.00 | 0.13 | 0.00 | 95 | 992.4 |
| 20260904224503 | 5 | 321 | 1.6 | 3.2 | 0.00 | 0.13 | 0.00 | 95 | 992.6 |
| 20260904223603 | 5 | 321 | 3.2 | 4.8 | 0.00 | 0.13 | 0.00 | 95 | 992.6 |
| 20260904222703 | 5 | 321 | 0.0 | 4.8 | 0.00 | 0.13 | 0.00 | 94 | 992.7 |
| 20260904221803 | 5 | 0 | 0.0 | 0.0 | 0.00 | 0.13 | 0.00 | 94 | 992.7 |
| 20260904220903 | 5 | 0 | 0.0 | 0.0 | 0.00 | 0.13 | 0.00 | 94 | 992.8 |
| 20260904220003 | 6 | 0 | 0.0 | 0.0 | 0.00 | 0.13 | 0.00 | 94 | 992.8 |
| 20260904215403 | 6 | 0 | 0.0 | 0.0 | 0.00 | 0.13 | 0.00 | 94 | 992.9 |
| 20260904214524 | 6 | 0 | 0.0 | 0.0 | 0.00 | 0.13 | 0.00 | 95 | 992.8 |
| 20260904213603 | 6 | 0 | 0.0 | 0.0 | 0.00 | 0.13 | 0.00 | 94 | 992.9 |
| 20260904212703 | 6 | 321 | 0.0 | 3.2 | 0.00 | 0.13 | 0.00 | 95 | 992.9 |
| 20260904211803 | 6 | 321 | 1.6 | 3.2 | 0.00 | 0.13 | 0.00 | 94 | 993.0 |
| 20260904210903 | 6 | 0 | 0.0 | 0.0 | 0.00 | 0.13 | 0.00 | 94 | 993.1 |
| 20260904210004 | 7 | 321 | 0.0 | 1.6 | 0.00 | 0.13 | 0.00 | 94 | 993.1 |
| 20260904205403 | 7 | 321 | 1.6 | 3.2 | 0.00 | 0.13 | 0.13 | 94 | 993.2 |
| 20260904204503 | 7 | 321 | 4.8 | 6.4 | 0.00 | 0.13 | 0.13 | 95 | 993.2 |
| 20260904203603 | 8 | 321 | 4.8 | 6.4 | 0.00 | 0.13 | 0.13 | 94 | 993.2 |
| 20260904202703 | 8 | 321 | 4.8 | 8.0 | 0.00 | 0.13 | 0.13 | 95 | 993.3 |
| 20260904201803 | 8 | 321 | 6.4 | 8.0 | 0.00 | 0.13 | 0.13 | 95 | 993.2 |
| 20260904200903 | 8 | 321 | 6.4 | 8.0 | 0.00 | 0.13 | 0.13 | 95 | 993.4 |
| 20260904200003 | 8 | 316 | 6.4 | 8.0 | 0.00 | 0.13 | 0.13 | 94 | 993.4 |
| 20260904195403 | 8 | 315 | 6.4 | 8.0 | 0.00 | 0.15 | 0.13 | 95 | 993.4 |
| 20260904194503 | 7 | 316 | 4.8 | 8.0 | 0.00 | 0.15 | 0.13 | 95 | 993.5 |
| 20260904193603 | 7 | 311 | 6.4 | 8.0 | 0.00 | 0.15 | 0.13 | 94 | 993.5 |
| 20260904192703 | 6 | 302 | 3.2 | 6.4 | 0.00 | 0.15 | 0.13 | 93 | 993.4 |
| 20260904191803 | 7 | 297 | 3.2 | 6.4 | 0.00 | 0.15 | 0.13 | 93 | 993.4 |
| 20260904190903 | 7 | 221 | 3.2 | 6.4 | 0.00 | 0.15 | 0.13 | 93 | 993.5 |
| 20260904190003 | 7 | 218 | 3.2 | 4.8 | 0.00 | 0.15 | 0.13 | 93 | 993.6 |
| 20260904185403 | 6 | 218 | 1.6 | 4.8 | 0.00 | 0.15 | 0.13 | 93 | 993.7 |
| 20260904184503 | 6 | 217 | 1.6 | 3.2 | 0.00 | 0.18 | 0.13 | 92 | 993.8 |
| 20260904183603 | 6 | 217 | 1.6 | 3.2 | 0.00 | 0.18 | 0.13 | 91 | 993.8 |
| 20260904182724 | 6 | 217 | 0.0 | 3.2 | 0.00 | 0.18 | 0.13 | 91 | 993.8 |
| 20260904181803 | 7 | 217 | 1.6 | 3.2 | 0.00 | 0.18 | 0.13 | 91 | 993.9 |
| 20260904180924 | 7 | 218 | 1.6 | 3.2 | 0.00 | 0.18 | 0.13 | 90 | 993.9 |
| 20260904180003 | 7 | 217 | 0.0 | 1.6 | 0.00 | 0.20 | 0.13 | 90 | 993.9 |
| 20260904175403 | 8 | 217 | 0.0 | 1.6 | 0.00 | 0.23 | 0.13 | 90 | 993.9 |
| 20260904174503 | 8 | 217 | 1.6 | 1.6 | 0.00 | 0.25 | 0.13 | 89 | 993.9 |
| 20260904173624 | 9 | 217 | 1.6 | 3.2 | 0.00 | 0.28 | 0.13 | 90 | 993.9 |
| 20260904172703 | 10 | 217 | 1.6 | 3.2 | 0.00 | 0.28 | 0.13 | 89 | 994.0 |
| 20260904171803 | 10 | 218 | 0.0 | 3.2 | 0.00 | 0.28 | 0.13 | 88 | 994.0 |
| 20260904170903 | 11 | 217 | 1.6 | 3.2 | 0.00 | 0.28 | 0.13 | 88 | 994.1 |
| 20260904170003 | 11 | 217 | 0.0 | 3.2 | 0.00 | 0.28 | 0.13 | 88 | 994.2 |
| 20260904165403 | 11 | 0 | 0.0 | 0.0 | 0.00 | 0.28 | 0.13 | 88 | 994.2 |
| 20260904164503 | 12 | 0 | 0.0 | 0.0 | 0.00 | 0.28 | 0.13 | 87 | 994.2 |
| 20260904163603 | 12 | 0 | 0.0 | 0.0 | 0.00 | 0.28 | 0.13 | 86 | 994.2 |
| 20260904162703 | 12 | 0 | 0.0 | 0.0 | 0.00 | 0.28 | 0.13 | 85 | 994.2 |
| 20260904161803 | 12 | 0 | 0.0 | 0.0 | 0.00 | 0.28 | 0.13 | 84 | 994.3 |
| 20260904160904 | 12 | 218 | 0.0 | 3.2 | 0.00 | 0.28 | 0.13 | 84 | 994.3 |
| 20260904160004 | 12 | 217 | 1.6 | 3.2 | 0.00 | 0.28 | 0.13 | 84 | 994.3 |
| 20260904155404 | 12 | 218 | 1.6 | 1.6 | 0.00 | 0.28 | 0.13 | 85 | 994.3 |
| 20260904154525 | 12 | 217 | 1.6 | 4.8 | 0.00 | 0.28 | 0.13 | 85 | 994.4 |
| 20260904153604 | 12 | 217 | 1.6 | 3.2 | 0.00 | 0.28 | 0.13 | 85 | 994.5 |
| 20260904152704 | 12 | 217 | 1.6 | 4.8 | 0.00 | 0.28 | 0.13 | 85 | 994.5 |
| 20260904151804 | 12 | 222 | 1.6 | 8.0 | 0.00 | 0.28 | 0.13 | 84 | 994.6 |
| 20260904150904 | 12 | 228 | 3.2 | 8.0 | 0.00 | 0.28 | 0.13 | 84 | 994.6 |
| 20260904150004 | 13 | 229 | 1.6 | 4.8 | 0.00 | 0.28 | 0.13 | 83 | 994.7 |
| 20260904145404 | 13 | 202 | 3.2 | 8.0 | 0.00 | 0.28 | 0.13 | 82 | 994.7 |
| 20260904144504 | 13 | 240 | 3.2 | 12.9 | 0.00 | 0.28 | 0.13 | 80 | 994.7 |
| 20260904143604 | 14 | 165 | 4.8 | 11.3 | 0.00 | 0.28 | 0.13 | 79 | 994.8 |
| 20260904142725 | 14 | 172 | 1.6 | 8.0 | 0.00 | 0.28 | 0.13 | 80 | 994.7 |
| 20260904141804 | 14 | 172 | 1.6 | 6.4 | 0.00 | 0.28 | 0.13 | 79 | 994.8 |
| 20260904140925 | 14 | 170 | 3.2 | 9.7 | 0.00 | 0.28 | 0.13 | 79 | 994.8 |
| 20260904140004 | 14 | 167 | 4.8 | 11.3 | 0.00 | 0.28 | 0.13 | 79 | 995.0 |
| 20260904135404 | 14 | 162 | 6.4 | 12.9 | 0.00 | 0.28 | 0.13 | 79 | 995.0 |
| 20260904134504 | 14 | 164 | 6.4 | 12.9 | 0.00 | 0.28 | 0.13 | 79 | 995.0 |
| 20260904133604 | 14 | 161 | 6.4 | 12.9 | 0.00 | 0.28 | 0.13 | 79 | 995.0 |
| 20260904132704 | 14 | 151 | 4.8 | 9.7 | 0.00 | 0.28 | 0.13 | 78 | 995.0 |
| 20260904131825 | 14 | 162 | 6.4 | 12.9 | 0.00 | 0.28 | 0.13 | 78 | 995.1 |
| 20260904130904 | 14 | 168 | 3.2 | 9.7 | 0.00 | 0.28 | 0.13 | 79 | 995.1 |
| 20260904130004 | 14 | 164 | 6.4 | 11.3 | 0.00 | 0.28 | 0.13 | 78 | 995.1 |
| 20260904125404 | 14 | 169 | 6.4 | 9.7 | 0.00 | 0.28 | 0.13 | 79 | 995.1 |
| 20260904124504 | 14 | 173 | 4.8 | 11.3 | 0.00 | 0.28 | 0.13 | 78 | 995.1 |
| 20260904123604 | 14 | 160 | 6.4 | 14.5 | 0.00 | 0.28 | 0.13 | 80 | 995.2 |
| 20260904122725 | 14 | 159 | 6.4 | 16.1 | 0.00 | 0.28 | 0.13 | 79 | 995.1 |
| 20260904121825 | 13 | 169 | 6.4 | 14.5 | 0.00 | 0.28 | 0.13 | 80 | 995.4 |
| 20260904120904 | 13 | 168 | 4.8 | 9.7 | 0.00 | 0.28 | 0.13 | 80 | 995.5 |
| 20260904120004 | 13 | 169 | 6.4 | 12.9 | 0.00 | 0.28 | 0.13 | 80 | 995.5 |
| 20260904115404 | 13 | 179 | 4.8 | 12.9 | 0.00 | 0.28 | 0.13 | 80 | 995.5 |
| 20260904114504 | 13 | 181 | 4.8 | 9.7 | 0.00 | 0.28 | 0.13 | 81 | 995.6 |
| 20260904113604 | 13 | 167 | 3.2 | 8.0 | 0.00 | 0.28 | 0.13 | 80 | 995.8 |
| 20260904112704 | 13 | 199 | 3.2 | 8.0 | 0.00 | 0.28 | 0.13 | 83 | 995.8 |
| 20260904111804 | 13 | 190 | 3.2 | 8.0 | 0.00 | 0.28 | 0.13 | 83 | 995.8 |
| 20260904110904 | 13 | 164 | 4.8 | 11.3 | 0.00 | 0.28 | 0.13 | 84 | 995.8 |
| 20260904110025 | 13 | 167 | 4.8 | 12.9 | 0.00 | 0.28 | 0.13 | 85 | 995.9 |
| 20260904105404 | 12 | 168 | 4.8 | 12.9 | 0.00 | 0.28 | 0.13 | 85 | 995.9 |
| 20260904104525 | 12 | 163 | 4.8 | 11.3 | 0.00 | 0.28 | 0.13 | 85 | 996.0 |
| 20260904103605 | 12 | 169 | 6.4 | 11.3 | 0.00 | 0.28 | 0.13 | 85 | 996.0 |
| 20260904102704 | 12 | 165 | 4.8 | 8.0 | 0.00 | 0.28 | 0.13 | 86 | 996.1 |
| 20260904101825 | 12 | 169 | 4.8 | 9.7 | 0.00 | 0.28 | 0.13 | 85 | 996.3 |
| 20260904100904 | 12 | 171 | 3.2 | 8.0 | 0.00 | 0.28 | 0.13 | 85 | 996.3 |
| 20260904100004 | 12 | 159 | 3.2 | 9.7 | 0.00 | 0.28 | 0.13 | 85 | 996.3 |
| 20260904095404 | 12 | 164 | 6.4 | 11.3 | 0.00 | 0.28 | 0.13 | 85 | 996.3 |
| 20260904094504 | 12 | 158 | 4.8 | 9.7 | 0.00 | 0.28 | 0.13 | 87 | 996.4 |
| 20260904093604 | 12 | 167 | 4.8 | 8.0 | 0.00 | 0.28 | 0.13 | 86 | 996.3 |
| 20260904092704 | 12 | 172 | 4.8 | 11.3 | 0.00 | 0.28 | 0.13 | 87 | 996.5 |
| 20260904091825 | 12 | 151 | 6.4 | 11.3 | 0.00 | 0.28 | 0.13 | 87 | 996.5 |
| 20260904090904 | 12 | 185 | 3.2 | 11.3 | 0.00 | 0.28 | 0.13 | 87 | 996.5 |
| 20260904090004 | 12 | 179 | 3.2 | 11.3 | 0.00 | 0.28 | 0.13 | 88 | 996.4 |
| 20260904085404 | 12 | 157 | 4.8 | 11.3 | 0.00 | 0.28 | 0.13 | 88 | 996.5 |
| 20260904084504 | 12 | 161 | 4.8 | 12.9 | 0.00 | 0.28 | 0.13 | 88 | 996.4 |
| 20260904083604 | 12 | 155 | 6.4 | 11.3 | 0.00 | 0.28 | 0.13 | 89 | 996.5 |
| 20260904082704 | 12 | 164 | 6.4 | 9.7 | 0.00 | 0.28 | 0.13 | 89 | 996.5 |
| 20260904081825 | 12 | 167 | 4.8 | 8.0 | 0.00 | 0.28 | 0.13 | 90 | 996.5 |
| 20260904080904 | 11 | 163 | 4.8 | 9.7 | 0.00 | 0.28 | 0.13 | 91 | 996.5 |
| 20260904080004 | 11 | 163 | 4.8 | 9.7 | 0.00 | 0.28 | 0.13 | 91 | 996.5 |
| 20260904075404 | 11 | 166 | 6.4 | 11.3 | 0.00 | 0.28 | 0.13 | 91 | 996.5 |
| 20260904074504 | 11 | 173 | 6.4 | 11.3 | 0.00 | 0.28 | 0.13 | 91 | 996.4 |
| 20260904073625 | 11 | 169 | 6.4 | 9.7 | 0.00 | 0.28 | 0.13 | 91 | 996.4 |
| 20260904072704 | 11 | 169 | 6.4 | 11.3 | 0.00 | 0.28 | 0.13 | 91 | 996.6 |
| 20260904071825 | 11 | 172 | 4.8 | 9.7 | 0.00 | 0.28 | 0.13 | 91 | 996.4 |
| 20260904070904 | 11 | 164 | 4.8 | 9.7 | 0.00 | 0.28 | 0.13 | 91 | 996.4 |
| 20260904070004 | 11 | 165 | 4.8 | 9.7 | 0.00 | 0.28 | 0.13 | 92 | 996.4 |
| 20260904065404 | 11 | 160 | 4.8 | 9.7 | 0.00 | 0.28 | 0.13 | 92 | 996.5 |
| 20260904064504 | 11 | 169 | 4.8 | 11.3 | 0.00 | 0.28 | 0.13 | 93 | 996.5 |
| 20260904063604 | 10 | 166 | 4.8 | 9.7 | 0.00 | 0.28 | 0.13 | 93 | 996.5 |
| 20260904062704 | 10 | 166 | 4.8 | 9.7 | 0.00 | 0.28 | 0.13 | 93 | 996.5 |
| 20260904061804 | 10 | 176 | 3.2 | 8.0 | 0.00 | 0.28 | 0.13 | 93 | 996.5 |
| 20260904060904 | 10 | 186 | 1.6 | 6.4 | 0.00 | 0.28 | 0.13 | 93 | 996.5 |
| 20260904060004 | 10 | 186 | 1.6 | 4.8 | 0.00 | 0.28 | 0.13 | 94 | 996.7 |
| 20260904055404 | 10 | 190 | 1.6 | 6.4 | 0.00 | 0.28 | 0.13 | 94 | 996.7 |
| 20260904054504 | 10 | 197 | 3.2 | 11.3 | 0.00 | 0.28 | 0.13 | 95 | 996.7 |
| 20260904053604 | 10 | 170 | 3.2 | 9.7 | 0.00 | 0.28 | 0.13 | 95 | 996.7 |
| 20260904052704 | 10 | 201 | 3.2 | 9.7 | 0.00 | 0.28 | 0.13 | 95 | 996.7 |
| 20260904051825 | 9 | 197 | 1.6 | 4.8 | 0.00 | 0.28 | 0.13 | 95 | 996.8 |
| 20260904050904 | 9 | 197 | 1.6 | 6.4 | 0.00 | 0.28 | 0.13 | 95 | 996.9 |
| 20260904050004 | 8 | 197 | 1.6 | 4.8 | 0.00 | 0.28 | 0.13 | 95 | 996.8 |
| 20260904045425 | 8 | 197 | 1.6 | 4.8 | 0.00 | 0.28 | 0.13 | 95 | 996.9 |
| 20260904044504 | 8 | 196 | 0.0 | 3.2 | 0.00 | 0.28 | 0.13 | 94 | 997.0 |
| 20260904043604 | 8 | 197 | 0.0 | 1.6 | 0.00 | 0.28 | 0.13 | 94 | 997.0 |
| 20260904042704 | 8 | 197 | 1.6 | 3.2 | 0.00 | 0.28 | 0.13 | 94 | 997.0 |
| 20260904041804 | 8 | 197 | 1.6 | 3.2 | 0.00 | 0.28 | 0.13 | 94 | 997.1 |
| 20260904040904 | 8 | 197 | 1.6 | 4.8 | 0.00 | 0.28 | 0.13 | 94 | 997.1 |
| 20260904040025 | 8 | 197 | 1.6 | 4.8 | 0.00 | 0.28 | 0.13 | 95 | 997.2 |
| 20260904035425 | 8 | 197 | 1.6 | 3.2 | 0.00 | 0.28 | 0.13 | 94 | 997.2 |
| 20260904034504 | 8 | 197 | 0.0 | 3.2 | 0.00 | 0.28 | 0.13 | 94 | 997.2 |
| 20260904033604 | 8 | 197 | 1.6 | 6.4 | 0.00 | 0.28 | 0.13 | 94 | 997.1 |
| 20260904032725 | 8 | 197 | 0.0 | 4.8 | 0.00 | 0.28 | 0.13 | 94 | 997.3 |
| 20260904031804 | 8 | 197 | 0.0 | 1.6 | 0.00 | 0.28 | 0.13 | 94 | 997.3 |
| 20260904030904 | 8 | 197 | 0.0 | 3.2 | 0.00 | 0.28 | 0.13 | 94 | 997.4 |
| 20260904030004 | 8 | 197 | 1.6 | 4.8 | 0.00 | 0.28 | 0.13 | 94 | 997.4 |
| 20260904025425 | 8 | 197 | 1.6 | 4.8 | 0.00 | 0.28 | 0.13 | 94 | 997.4 |
| 20260904024504 | 8 | 197 | 1.6 | 4.8 | 0.00 | 0.28 | 0.13 | 94 | 997.4 |
| 20260904023604 | 8 | 197 | 0.0 | 3.2 | 0.00 | 0.28 | 0.13 | 94 | 997.5 |
| 20260904022725 | 8 | 197 | 1.6 | 6.4 | 0.00 | 0.28 | 0.13 | 94 | 997.5 |
| 20260904021804 | 8 | 197 | 1.6 | 4.8 | 0.00 | 0.28 | 0.13 | 94 | 997.5 |
| 20260904020904 | 8 | 205 | 1.6 | 6.4 | 0.00 | 0.28 | 0.13 | 94 | 997.6 |
| 20260904020025 | 8 | 179 | 1.6 | 6.4 | 0.03 | 0.28 | 0.13 | 94 | 997.6 |
| 20260904015404 | 8 | 197 | 3.2 | 6.4 | 0.03 | 0.28 | 0.13 | 94 | 997.6 |